THORAD DELTA 1 DEB, 8596

Orbit data source: Space-Track

THORAD DELTA 1 DEB, 8596 is space debris in SSO originally from a launch on Fri, 15 Nov 1974 UTC launched from the Air Force Western Test Range (AFWTR). Debris objects in space refer to the collection of defunct objects orbiting the Earth. Examples of debris include non-operational satellites, rocket bodies, and fragments generated from explosions, collisions, or faulty payload assembly.

Loading next visibility...
Identifier
8596, 1974-089DK
Orbit
SSO
Country
Flag of USUS
Related business
Manufacturer
Unknown
Mission
Spacecraft
Bus & Motor
Unknown
Mass
Unknown
Launch date (UTC)
1974-11-15 (51 years ago)
Launch vehicle
Unknown
Launch site
Air Force Western Test Range (AFWTR)
Object type
Payload
Rocket body
Debris
Shape & HBR
Unknown shape, 0.1 m
Radar Cross Section
Small (<0.1 m²)

Expand to show TLE details & history
Last TLE update: 1 day ago

TLE from 1 day ago
0 THORAD DELTA 1 DEB
1  8596U 74089DK  25304.60065220  .00000035  00000-0  41579-3 0  9998
2  8596 101.7979 166.5465 0088585  41.9876 342.9358 12.68811811357833
Epoch: 2025-10-31T14:24Z
TLE epoch observation values (Epoch: 2025-10-31T14:24:56.350Z)
Latitude
24.09413°
Longitude
-95.16384°
Altitude
1,323.701 km
Speed
7.228 km/s
True Right ascension
10h 44m 51s
True Declination
23° 58' 32"
Sunlit
Object was in daylight at epoch
Visualization orbit readout
Latitude
Unknown
Longitude
Unknown
Altitude
Unknown
Speed
Unknown
Apparent Right ascension
Unknown
Apparent Declination
Unknown
Sunlit
N/A
Visualization observer readout
Local Sidereal Time
11:43:39
Azimuth
Unknown
Elevation
Unknown
Doppler factor
Unknown
Orbital elements
Apogee altitude
1,453.072 km
Perigee altitude
1,315.545 km
Semi-major axis
7,762.446 km
Eccentricity
0.00886
Inclination
101.7979°
RAAN
166.5465°
Arg. of periapsis
41.9876°
True anomaly
342.63474°
Mean anomaly
342.9358°
Eccentric anomaly
342.78559°
Mean motion
3.17355 °/min
Orbital period
113.44 mins
BSTAR
0.00041579
Loading maneuver chart data...
Computing Atmospheric mass density...

Documentation

Showing up to 5 results
|